Terminal Aerodrome Forecast
Issued by NWS Northern Indiana

Home | Current Version | Previous Version | Graphics & Text | Print | Product List | Glossary On
Versions: 1 2 3 4 5 6 7 8 9 10 11 12 13 14 15 16 17 18
000
FTUS43 KIWX 120500
TAFFWA
TAF
KFWA 120538Z 1206/1306 36006KT P6SM OVC025
     FM120900 02005KT P6SM OVC015
     FM121600 03007KT P6SM OVC030
     FM130400 04008KT P6SM BKN035=

USA.gov is the U.S. government's official web portal to all federal, state and local government web resources and services.